Regional Weather Roundup
Issued by NWS Northern Indiana

Home | Current Version | Previous Version | Graphics & Text | Print | Product List | Glossary On
Versions: 1 2 3 4 5 6 7 8 9 10 11 12 13 14 15 16 17 18 19 20 21 22 23 24 25 26 27 28 29 30 31 32 33 34 35 36 37 38 39 40 41 42 43 44 45 46 47 48 49 50
000
ASUS43 KIWX 291700
RWRIWX

KIWX WEATHER ROUNDUP
NATIONAL WEATHER SERVICE NORTHERN INDIANA
100 PM EDT MON JUN 29 2015

NOTE: "FAIR" INDICATES FEW OR NO CLOUDS BELOW 12,000 FEET WITH NO
SIGNIFICANT WEATHER AND/OR OBSTRUCTIONS TO VISIBILITY.

* THESE STATIONS ARE NOT UNDER NWS QUALITY CONTROL. THEY ALSO MAY NOT
  REPORT WEATHER SUCH AS PRECIPITATION OR FOG.

INZ001>027-291800-
NORTHERN INDIANA

CITY           SKY/WX    TMP DP  RH WIND       PRES   REMARKS
GARY*          PTSUNNY  N/A N/A N/A CALM      29.82S
SOUTH BEND     RAIN      66  63  90 SE8       29.85R FOG
ELKHART*       CLOUDY    66  59  77 SE12      29.85R
GOSHEN         CLOUDY    67  60  78 SE9       29.85R
ANGOLA*        MOSUNNY   70  59  68 SE13      29.86S
FORT WAYNE     CLOUDY    63  59  87 E10       29.86R

$$
INZ028>050-291800-
CENTRAL INDIANA

CITY           SKY/WX    TMP DP  RH WIND       PRES   REMARKS
LAFAYETTE      PTSUNNY   71  63  75 E3        29.80R
KOKOMO*        CLOUDY    68  61  77 SE7       29.81S
MUNCIE*        CLOUDY    67  61  81 SE9       29.82S
INDIANAPOLIS   DRIZZLE   68  64  87 CALM      29.80S FOG

$$
MIZ043>046-050>051-056>058-064>065-071>073-077>080-291800-
SOUTHWEST LOWER MICHIGAN

CITY           SKY/WX    TMP DP  RH WIND       PRES   REMARKS
BATTLE CREEK   CLOUDY    71  60  68 SE8       29.86S
BENTON HARBOR  CLOUDY    70  60  70 S8        29.83R
COLDWATER*     CLOUDY    69  56  62 SE15G21   29.86S
HILLSDALE*     MOSUNNY   70  57  62 SE10G20   29.88F
HOLLAND        CLOUDY    73  60  63 S10       29.84S
GRAND RAPIDS   CLOUDY    72  60  66 SE5       29.85R
KALAMAZOO      CLOUDY    72  58  61 VRB6      29.85S
STURGIS*         N/A     70  61  73 SE13G18   29.85S
THREE RIVERS*  CLOUDY    70  58  65 SE10      29.85S

$$
OHZ001>008-015>018-024>025-291800-
NORTHWEST OHIO

CITY           SKY/WX    TMP DP  RH WIND       PRES   REMARKS
DEFIANCE       CLOUDY    66  56  70 SE13G22   29.88S
FINDLAY        LGT RAIN  62  58  86 SE10      29.89S FOG
TOLEDO EXPRESS CLOUDY    69  58  67 S10G20    29.89S
TOLEDO METCALF CLOUDY    67  59  75 S12       29.91S
LIMA           CLOUDY    63  60  90 SE16      29.86F

$$
AND FOR LAKE MICHIGAN COASTAL AND OPEN LAKE BUOY OBSERVATIONS

STATION/POSITION TEMP    WIND        PRES    VSBY  WAVE
                 AIR SEA DIR/SP/G                  HT/PER
                 (F)     (DEG/KT/KT) (MB)    (MI)  (FT/S)
CALUMET HARBOR    65      50/  5/  7   N/A
MICHIGAN CITY     65     110/  6/  7   N/A
BURNS HARBOR      65      30/  3/  6 1010.5S
SAINT JOSEPH      71     220/  2/  5 1011.2R
4 MI NW BRIDGMAN  65 63                N/A           0
MICHIGAN CITY     65 64  140/  4/  4   N/A           0

$$
&&



USA.gov is the U.S. government's official web portal to all federal, state and local government web resources and services.